Regional Weather Roundup
Issued by NWS

Home | Current Version | Previous Version | Graphics & Text | Print | Product List | Glossary On
Versions: 1 2 3 4 5 6 7 8 9 10 11 12 13 14 15 16 17 18 19 20 21 22 23 24 25 26 27 28 29 30 31 32 33 34 35 36 37 38 39 40 41 42 43 44 45 46 47 48 49 50
000
ASUS45 KBOI 011310
RWRID
WEATHER ROUNDUP FOR IDAHO
NATIONAL WEATHER SERVICE BOISE ID
700 AM MDT WED APR 01 2015

NOTE: "FAIR" INDICATES FEW OR NO CLOUDS BELOW 12000 FEET
WITH NO SIGNIFICANT WEATHER AND/OR OBSTRUCTIONS TO VISIBILITY

IDZ012-014-011400-
SOUTHWEST IDAHO


CITY           SKY/WX    TMP DP  RH WIND       PRES   REMARKS
BOISE          CLOUDY    38  29  70 NW9       30.18R WCI  31
CALDWELL       FAIR      36  21  55 W5        30.21R WCI  32
MOUNTAIN HOME  FAIR      31  27  84 NW10      30.17R WCI  22
$$

IDZ016-017-011400-
SOUTHCENTRAL IDAHO


CITY           SKY/WX    TMP DP  RH WIND       PRES   REMARKS
BURLEY         MOCLDY    34  26  72 SW16      30.11R WCI  24
JEROME         FAIR      31  26  82 SW17      30.12R WCI  19
TWIN FALLS     FAIR      33  24  69 SW14      30.13R WCI  23
$$

IDZ019>023-011400-
SOUTHEAST IDAHO


CITY           SKY/WX    TMP DP  RH WIND       PRES   REMARKS
IDAHO FALLS    CLOUDY    33  24  69 SW18      30.02R WCI  22
POCATELLO      MOCLDY    33  25  72 S13       30.07R WCI  24
REXBURG        LGT SNOW  32  26  78 S15       30.00R WCI  22
$$

IDZ006-010-011-018-031-032-011400-
CENTRAL IDAHO MOUNTAINS


CITY           SKY/WX    TMP DP  RH WIND       PRES   REMARKS
MCCALL         FAIR      27  24  89 CALM      30.06R
HAILEY         PTCLDY    32  16  51 CALM      30.04R
STANLEY          N/A     25  20  81 S3        30.03S
SALMON         MOCLDY    34  25  69 S8        30.03R WCI  27
CHALLIS        FAIR      28  19  69 CALM      30.03R
$$

IDZ002-004-006-007-026-011400-
NORTHERN IDAHO


CITY           SKY/WX    TMP DP  RH WIND       PRES   REMARKS
LEWISTON       CLOUDY    43  31  62 N5        30.15R
LOWELL           N/A     39  37  92 CALM      30.16R
COEUR D`ALENE  FAIR      32  25  74 SW3       30.09S
MULLAN PASS    CLOUDY    21  19  92 W8        29.94R WCI  11
$$


USA.gov is the U.S. government's official web portal to all federal, state and local government web resources and services.